This demonstration page uses our WeatherBlox Daily Observations layout. Learn more.

Left ArrowRight Arrow

39.29038, -76.61219

Hourly Observations for January 19, 2017

Temp ( °F °C ) Dew Point ( °F °C ) Humidity (%) Winds ( mph kmh ) Pressure ( in mb ) Visibility ( mi km ) Precip ( " mm )
12:54 am 00:54 undefined 48 8.9 34 1.1 58 58 undefined N/A 30.06 1018 N/A 0.00 0.00
1:54 am 01:54 undefined 47 8.3 34 1.1 61 61 undefined N/A 30.06 1018 N/A 0.00 0.00
2:54 am 02:54 undefined 47 8.3 34 1.1 61 61 undefined N/A 30.07 1018 N/A 0.00 0.00
3:54 am 03:54 undefined 47 8.3 34 1.1 61 61 undefined N/A 30.07 1018 N/A 0.00 0.00
4:54 am 04:54 undefined 47 8.3 34 1.1 61 61 undefined N/A 30.07 1018 N/A 0.00 0.00
5:54 am 05:54 undefined 47 8.3 34 1.1 61 61 undefined N/A 30.07 1018 N/A 0.00 0.00
6:54 am 06:54 undefined 46 7.8 34 1.1 63 63 undefined N/A 30.08 1019 N/A 0.00 0.00
7:54 am 07:54 undefined 47 8.3 34 1.1 61 61 undefined N/A 30.10 1019 N/A 0.00 0.00
8:54 am 08:54 undefined 48 8.9 34 1.1 58 58 undefined N/A 30.10 1019 N/A 0.00 0.00
9:54 am 09:54 undefined 48 8.9 33 0.6 56 56 undefined N/A 30.10 1019 N/A 0.00 0.00
10:54 am 10:54 undefined 49 9.4 33 0.6 55 55 undefined N/A 30.11 1020 N/A 0.00 0.00
11:54 am 11:54 undefined 50 10 33 0.6 52 52 undefined N/A 30.08 1019 N/A 0.00 0.00
12:54 pm 12:54 undefined 50 10 33 0.6 52 52 undefined N/A 30.06 1018 N/A 0.00 0.00
1:54 pm 13:54 undefined 51 10.6 34 1.1 52 52 undefined N/A 30.04 1017 N/A 0.00 0.00
2:54 pm 14:54 undefined 52 11.1 34 1.1 50 50 undefined N/A 30.01 1016 N/A 0.00 0.00
3:54 pm 15:54 undefined 52 11.1 34 1.1 50 50 undefined N/A 30.01 1016 N/A 0.00 0.00
4:54 pm 16:54 undefined 51 10.6 34 1.1 52 52 undefined N/A 30.01 1016 N/A 0.00 0.00
5:54 pm 17:54 undefined 51 10.6 34 1.1 52 52 undefined N/A 30.01 1016 N/A 0.00 0.00
6:54 pm 18:54 undefined 49 9.4 34 1.1 56 56 undefined N/A 30.02 1017 N/A 0.00 0.00
7:54 pm 19:54 undefined 45 7.2 35 1.7 68 68 undefined N/A 30.02 1017 N/A 0.00 0.00
8:54 pm 20:54 undefined 45 7.2 35 1.7 68 68 undefined N/A 30.03 1017 N/A 0.00 0.00
9:54 pm 21:54 undefined 43 6.1 34 1.1 71 71 undefined N/A 30.03 1017 N/A 0.00 0.00
10:54 pm 22:54 undefined 43 6.1 34 1.1 71 71 undefined N/A 30.04 1017 N/A 0.00 0.00
11:54 pm 23:54 undefined 42 5.6 34 1.1 73 73 undefined N/A 30.03 1017 N/A 0.00 0.00

Powered by AerisWeather